*** The Vicarage Weather Feed ***

NOAA NWS Hourly Roundups by Site

Regional Weather Roundup for Omaha, NE

To Select Another Site Choose from List

Select Site:  

000
ASUS43 KOAX 010710
RWRNE

WEATHER ROUNDUP FOR NEBRASKA
NATIONAL WEATHER SERVICE OMAHA NE
200 AM CDT WED APR 01 2020

NOTES: SATELLITE DATA IS BEING USED TO AUGMENT CLOUD COVER ABOVE
       12000 FEET.
       "FAIR" INDICATES FEW OR NO CLOUDS BELOW 12,000 FEET WITH NO
       SIGNIFICANT WEATHER AND/OR OBSTRUCTIONS TO VISIBILITY.


NEZ001>004-019>022-054>056-010800-
NEBRASKA PANHANDLE

CITY           SKY/WX    TMP DP  RH WIND       PRES   REMARKS
SCOTTSBLUFF    FAIR      42  31  64 CALM      29.77F
ALLIANCE       CLOUDY    42  34  73 SE10      29.76F
CHADRON        CLOUDY    45  35  68 NE6       29.78R
GORDON         FAIR      37  32  81 NW7       29.77F WCI  32
KIMBALL        CLOUDY    47  28  46 CALM      29.83R
SIDNEY         FAIR      42  28  57 SW6       29.79F
$$

NEZ057>060-069>072-079>082-010800-
SOUTHWEST NEBRASKA

CITY           SKY/WX    TMP DP  RH WIND       PRES   REMARKS
NORTH PLATTE   FAIR      53  37  54 W6        29.82R
IMPERIAL       FAIR      47  37  68 S5        29.81S
LEXINGTON      FAIR      49  40  71 CALM      29.83S
MCCOOK         FAIR      51  40  65 SW9       29.81F
OGALLALA       FAIR      47  36  65 W6        29.81F
$$

NEZ005>010-023>029-035>040-094-010800-
NORTH CENTRAL NEBRASKA

CITY           SKY/WX    TMP DP  RH WIND       PRES   REMARKS
VALENTINE      FAIR      42  33  70 SW8       29.75S
AINSWORTH      FAIR      47  37  68 SW8       29.75S
BROKEN BOW     FAIR      54  39  57 SW10      29.81R
O`NEILL        FAIR      47  38  70 SW8       29.74S
ORD            MOCLDY    54  39  57 SW20G30   29.78R
THEDFORD       FAIR      50  34  55 SE5       29.78F
$$

NEZ041-046>049-061>064-073>077-083>087-010800-
SOUTH CENTRAL NEBRASKA

CITY           SKY/WX    TMP DP  RH WIND       PRES   REMARKS
GRAND ISLAND   FAIR      52  41  66 SW14      29.82S
AURORA         FAIR      51  44  76 S9        29.83R
HASTINGS       FAIR      51  40  65 SW7       29.84S
HEBRON         FAIR      52  44  73 S10       29.87S
HOLDREGE       FAIR      50  41  71 SW9       29.84R
KEARNEY        FAIR      51  42  71 SW12      29.83S
YORK             N/A     50  45  81 S12       29.84S
$$

NEZ011>018-030>034-042>045-010800-
NORTHEAST NEBRASKA

CITY           SKY/WX    TMP DP  RH WIND       PRES   REMARKS
NORFOLK        FAIR      54  42  64 S12       29.79S
ALBION         FAIR      51  42  73 S9        29.79S
BLAIR          FAIR      51  40  64 SE7       29.87F
COLUMBUS       FAIR      53  43  68 S13       29.83R
FREMONT        FAIR      55  45  67 SE6       29.86S
TEKAMAH        FAIR      48  35  60 SE15      29.87S
WAYNE          FAIR      49  38  65 SE18      29.81S
$$

NEZ050>053-065>068-078-088>093-010800-
SOUTHEAST NEBRASKA

CITY           SKY/WX    TMP DP  RH WIND       PRES   REMARKS
LINCOLN        FAIR      55  42  61 S10       29.86S
OMAHA EPPLEY   MOCLDY    53  33  46 SE12      29.90R
BEATRICE       FAIR      52  45  75 S9        29.88R
FALLS CITY     FAIR      53  43  68 S9        29.90S
NEBRASKA CITY  MOCLDY    54  43  66 S10       29.89S
PLATTSMOUTH    MOCLDY    53  42  66 SE8       29.89S
$$

NEZ044-045-051>053-067-010800-
OMAHA AREA

CITY           SKY/WX    TMP DP  RH WIND       PRES   REMARKS
OMAHA EPPLEY   MOCLDY    53  33  46 SE12      29.90R
BLAIR          FAIR      51  40  64 SE7       29.87F
FREMONT        FAIR      55  45  67 SE6       29.86S
MILLARD        MOCLDY    56  41  57 E3        29.89R
OFFUTT AFB     PTCLDY    53  38  57 SE7       29.89R
PLATTSMOUTH    MOCLDY    53  42  66 SE8       29.89S
WAHOO          FAIR      50  43  75 SE9       29.85S
$$



 

View Past Reports for Omaha, NE.

Products Courtesy of NOAA-NWS
NWS Information Parsing Script by Ken True at Saratoga Weather - Script by SE Lincoln Weather.

This data is offered only as a general guide to local weather conditions. It should not be relied upon in lieu of officially disseminated weather information for determining possible risk to persons or property. This site, including all information contained therein, is made available as is without warranties of any kind, either express or implied. The Vicarage Weather Feed© includes links to other sites for user convenience only. The content of any linked third-party site is not controlled by The Vicarage Weather Feed©. Access to any third-party website through The Vicarage Weather Feed©, regardless of whether or not the third-party site is a linked site, is entirely at the users own risk. Externally sourced content or material is excluded from The Vicarage Weather Feed© copyright and is the copyright and property of the respective provider. Skywarn® and the Skywarn® logo are registered trademarks of the National Oceanic and Atmospheric Administration, used with permission.